User: anonymous   Login
Location: Theydon Bois
(51.6750°N, 0.1050°E)
Time: 20:19:08
(UTC+00:00)
Language:

Cosmos 2058 - Orbit

View from above orbital plane
View from above orbital plane
View from above satellite
View from above satellite

Ground track
Ground track

The orbit data is extracted from the following two-line orbital elements,

1 20465U 90010A   18048.89925173 +.00000349 +00000-0 +27421-4 0  9998
2 20465 082.4908 011.5805 0015370 181.2707 178.8479 14.97673280501009
Epoch (UTC): 17 February 2018 21:34:55
Eccentricity: 0.0015370
inclination: 82.4908°
perigee height: 563 km
apogee height: 585 km
right ascension of ascending node: 11.5805°
argument of perigee: 181.2707°
revolutions per day: 14.97673280
mean anomaly at epoch: 178.8479°
orbit number at epoch: 50100

The dashed part of the orbit path shows where the satellite is in the earth's shadow,  

DLR